Flag for Norway Weather past 2 weeks in Ny-Ålesund, Svalbard, Norway

Now
6 °F

Frigid.


Feels Like: -2 °F
Forecast: 0 / 12 °F
Wind: 3 mph from Southeast

Location: Ny Alesund

Current Time: Jan 28, 2015 at 1:32:31 PM

Latest Report: Jan 28, 2015 at 12:00 PM


Visibility: N/A

Pressure: 29.98 "Hg

Humidity: 41%

Dew point: -13 °F

Location of Ny-ÅlesundLocation

Historic Weather in Ny-Ålesund — Graph

°F

Ny-Ålesund temperature yesterday

Maximum temperature yesterday: 16 °F (at 12:00 AM)
Minimum temperature yesterday: 5 °F (at 4:00 PM)
Average temperature yesterday: 10 °F

Past Weeks' High & Low Weather Summary

 TemperatureHumidityPressure
High36 °F (Jan 23, 1:00 PM)90% (Jan 21, 11:00 PM)30.10 "Hg (Jan 21, 11:00 PM)
Low4 °F (Jan 17, 3:00 PM)35% (Jan 17, 9:00 AM)29.50 "Hg (Jan 22, 9:00 PM)
Average20 °F67%29.74 "Hg
* Reported Jan 13 12:00 Noon — Jan 28 12:00 Noon, Ny-Ålesund, Weather by CustomWeather, © 2014

Note: Actual official high and low records may vary slightly from our data, if they occured in-between our weather recording intervals... More about our weather records

Advertising

Ny-Ålesund weather history for previous 24 hours

 ConditionsComfort  
Time TempWeatherWind HumidityBarometerVisibility
12:00 PM
Jan 28
6 °FFrigid.3 mph41%29.98 "HgN/A
11:00 AM6 °FFrigid.2 mph45%29.97 "HgN/A
10:00 AM6 °FFrigid.1 mph51%29.96 "HgN/A
9:00 AM6 °FFrigid.1 mph59%29.96 "HgN/A
8:00 AM5 °FFrigid.2 mph53%29.93 "HgN/A
7:00 AM6 °FPassing clouds.2 mph52%29.93 "Hg47 mi
6:00 AM5 °FFrigid.2 mph43%29.93 "HgN/A
5:00 AM5 °FFrigid.3 mph42%29.92 "HgN/A
4:00 AM5 °FFrigid.1 mph41%29.91 "HgN/A
3:00 AM6 °FFrigid.3 mph42%29.91 "HgN/A
2:00 AM7 °FFrigid.3 mph52%29.90 "HgN/A
1:00 AM8 °FFrigid.3 mph45%29.90 "HgN/A
12:00 AM6 °FFrigid.No wind38%29.89 "HgN/A
11:00 PM
Jan 27
6 °FFrigid.2 mph36%29.88 "HgN/A
10:00 PM6 °FFrigid.1 mph37%29.88 "HgN/A
9:00 PM6 °FFrigid.7 mph43%29.86 "HgN/A
8:00 PM6 °FFrigid.9 mph54%29.85 "HgN/A
7:00 PM6 °FClear.8 mph44%29.86 "Hg47 mi
6:00 PM7 °FFrigid.13 mph52%29.85 "HgN/A
5:00 PM10 °FFrigid.9 mph56%29.86 "HgN/A
4:00 PM5 °FFrigid.10 mph57%29.85 "HgN/A
1:00 PM9 °FSunny.15 mph54%29.83 "Hg47 mi
Weather by CustomWeather, © 2014

See weather overviewHow to use our weather pages